Location: Gudip?du
(17.0263°N, 80.8301°E)
Time: 13:22:04
(UTC+00:00)

DELTA 2 DEB (DPAF) - Pass Details

Date: 03 August 2024
Orbit: 586 x 589 km, 98.4° (Epoch: 11 September)

Event Time Altitude Azimuth Distance (km) Brightness Sun altitude
Rises 14:25:50 0° 16° (NNE) 2,805 7.5 -18.0°
Reaches altitude 10° 14:28:00 10° 20° (NNE) 1,905 6.6 -18.5°
Maximum altitude 14:32:06 64° 101° (ESE) 650 3.8 -19.4°
Enters shadow 14:34:02 30° 174° (S) 1,072 5.0 -19.8°
